Location: *
(50.0228°S, 177.2688°W)
Time: 17:45:43
(UTC+00:00)

STARLINK-1012 - Pass Details

Date: 07 April 2020
Orbit: 549 x 551 km, 53.0° (Epoch: 25 May)

Event Time Altitude Azimuth Distance (km) Brightness Sun altitude
Rises 06:38:56 0° 248° (WSW) 2,752 8.7 -13.0°
Reaches altitude 10° 06:41:12 10° 251° (WSW) 1,854 7.6 -13.4°
Maximum altitude 06:45:21 62° 330° (NNW) 635 4.0 -14.1°
Enters shadow 06:48:15 19° 47° (NE) 1,363 5.2 -14.5°
